Location: Bishopstone
(51.0167°N, 1.9000°W)
Time: 06:43:24
(UTC+00:00)

NOSS 0 Rocket - Pass Details

Date: 16 September 2019
Orbit: 935 x 955 km, 70.0° (Epoch: 15 October)

Event Time Altitude Azimuth Distance (km) Brightness Sun altitude
Rises 18:54:58 0° 328° (NNW) 3,618 7.7 -6.2°
Reaches altitude 10° 18:57:36 10° 334° (NNW) 2,673 6.9 -6.6°
Maximum altitude 19:03:37 50° 49° (NE) 1,200 4.3 -7.6°
Drops below altitude 10° 19:09:38 10° 124° (SE) 2,672 5.7 -8.5°
Enters shadow 19:10:05 - 126° (SE) 2,836 5.8 -8.5°
